Аэропорт
Орск (UWOR)

 UWOR / OSW
ЗЦ Москва
Самара (UWWW)
Самара (UWWW)
 51.07250, 58.59560  / 909 ft

 UWOR 250400Z 24005MPS 6000 OVC006 11/11 Q1013 R25/290050 NOSIG RMK QBB190 QFE736/0981
 TAF UWOR 242255Z 2500/2509 25007G13MPS 6000 -RA OVC016 TX12/2509Z TN06/2500Z TEMPO 2500/2506 23005G10MPS 1000 RA BR BKN006
АИП UWOR
показать схемы
Название сценария Тип сценария Flight Simulator 9 Flight Simulator X Prepar3D v2 Prepar3D v3 Prepar3D v4 Prepar3D v5 xPlane
Орск UWOR бесплатный

 

Аэропорт Орск (IATA: OSW, ICAO: UWOR) — международный аэропорт федерального значения города Орска Оренбургской области. Аэропорт находится в 16 километрах от центра города Орск, вблизи государственной границы РФ.

Аэропорт обслуживает несколько рейсов местных воздушных линий, а также рейсы в Москву и на курорты Краснодарского края (сезонно).

 

Превышение КТА: 277 м

Магнитное склонение аэродрома: +10°

Местное время: UTC +5

Регламент работы: круглосуточно

 

Информация о ВПП и навигационном оборудовании:

ВПП Размеры, м Hпор, м МПУ взлета/посадки Освещение ВПП ДПРМ БПРМ ILS
07 2900×42 276,7 066° - 385 (SF) 780 (S) -
25 2900×42 264,5 246° ОМИ 385 (OR) 780 (O) 108.100 (IOR)

 

Средства связи ОВД:

UWOR_TWR - Орск-Вышка - 122.700 (129.000)

UWOR_GND - Орск-Перрон - 118.000

UWOR_ATIS - Орск-АТИС - 125.900

 

Диапазон кодов ответчика: 4156, 4157

 



2020 © VATRUS division (Privacy Policy)